User: anonymous   Login
Location: Wildcat Hills Observatory
(41.6350°N, 103.6812°W)
Time: 17:17:15
(UTC-06:00)
Language:

Cosmos 1634 Rocket - Orbit

View from above orbital plane
View from above orbital plane
View from above satellite
View from above satellite

Ground track
Ground track

The orbit data is extracted from the following two-line orbital elements,

1 15598U 85022B   15185.40003858  .00000065  00000-0  50666-4 0  9991
2 15598 082.9386 277.6355 0020962 307.6318 122.9178 13.76528866522267
Epoch (UTC): 04 July 2015 09:36:03
Eccentricity: 0.0020962
inclination: 82.9386°
perigee height: 961 km
apogee height: 991 km
right ascension of ascending node: 277.6355°
argument of perigee: 307.6318°
revolutions per day: 13.76528866
mean anomaly at epoch: 122.9178°
orbit number at epoch: 52226

The dashed part of the orbit path shows where the satellite is in the earth's shadow,  

DLR